Weather History for K2W6 - October, 2013

Change the Weather History Date:

Tuesday, October 8, 2013

  Actual Average (KNHK) Record (KNHK)
Temperature  
Mean Temperature 56 °F -  
Max Temperature 60 °F 68 °F 88 °F (2007)
Min Temperature 53 °F 50 °F 35 °F (2001)
Degree Days  
Heating Degree Days 8    
Growing Degree Days 6 (Base 50)    
Moisture  
Dew Point 45 °F    
Average Humidity 62    
Maximum Humidity 72    
Minimum Humidity 52    
Precipitation  
Precipitation 0.00 in - - ()
Sea Level Pressure  
Sea Level Pressure 30.21 in    
Wind  
Wind Speed 3 mph (NNE)    
Max Wind Speed 10 mph    
Max Gust Speed 17 mph    
Visibility 10 miles    
Events      
Averages and records for this station are not official NWS values.
T = Trace of Precipitation, MM = Missing Value Source: NWS Daily Summary

Daily Weather History Graph

Daily Weather History Graph

Search for Another Location

Airport or City:

Trip Planner

Search our weather history database for the weather conditions in past years. The results will help you decide how hot, cold, wet, or windy it might be!

Date:

Astronomy

Oct. 08, 2013 Rise Set
Actual Time 7:08 AM EDT 6:38 PM EDT
Civil Twilight 6:42 AM EDT 7:04 PM EDT
Nautical Twilight 6:11 AM EDT 7:35 PM EDT
Astronomical Twilight 5:40 AM EDT 8:05 PM EDT
Moon 10:57 AM EDT (10/8) 9:15 PM EDT (10/8)
Length of Visible Light 12h 22m
Length of Day
11h 29m
Waxing Crescent, 16% of the Moon is Illuminated
Oct 8
Waxing Crescent
Oct 11
First Quarter
Oct 18
Full
Oct 26
Last Quarter
Nov 3
New

Hourly Weather History & Observations

Time (EDT) Temp. Dew Point Humidity Pressure Visibility Wind Dir Wind Speed Gust Speed Precip Events Conditions
12:04 AM 60.8 °F 46.4 °F 59% 30.06 in 10.0 mi NNW 5.8 mph - N/A   Mostly Cloudy
12:24 AM 59.0 °F 44.6 °F 59% 30.08 in 10.0 mi NW 5.8 mph - N/A   Scattered Clouds
12:44 AM 59.0 °F 44.6 °F 59% 30.09 in 10.0 mi Calm Calm - N/A   Overcast
1:04 AM 59.0 °F 46.4 °F 63% 30.10 in 10.0 mi NNW 4.6 mph - N/A   Overcast
1:24 AM 57.2 °F 46.4 °F 67% 30.10 in 10.0 mi North 3.5 mph - N/A   Scattered Clouds
1:44 AM 57.2 °F 44.6 °F 63% 30.10 in 10.0 mi NNW 3.5 mph - N/A   Clear
2:04 AM 57.2 °F 44.6 °F 63% 30.10 in 10.0 mi North 3.5 mph - N/A   Clear
2:24 AM 55.4 °F 44.6 °F 67% 30.11 in 10.0 mi NW 3.5 mph - N/A   Clear
2:45 AM 55.4 °F 44.6 °F 67% 30.12 in 10.0 mi Calm Calm - N/A   Clear
3:05 AM 55.4 °F 44.6 °F 67% 30.12 in 10.0 mi Calm Calm - N/A   Clear
3:25 AM 53.6 °F 44.6 °F 72% 30.12 in 10.0 mi Calm Calm - N/A   Clear
3:45 AM 53.6 °F 44.6 °F 72% 30.13 in 10.0 mi Calm Calm - N/A   Clear
4:05 AM 55.4 °F 44.6 °F 67% 30.13 in 10.0 mi Calm Calm - N/A   Clear
4:25 AM 53.6 °F 44.6 °F 72% 30.14 in 10.0 mi Calm Calm - N/A   Clear
4:45 AM 53.6 °F 44.6 °F 72% 30.15 in 10.0 mi Calm Calm - N/A   Clear
5:05 AM 53.6 °F 42.8 °F 67% 30.16 in 10.0 mi Calm Calm - N/A   Clear
5:25 AM 53.6 °F 42.8 °F 67% 30.17 in 10.0 mi NW 3.5 mph - N/A   Clear
5:45 AM 55.4 °F 42.8 °F 63% 30.17 in 10.0 mi NW 3.5 mph - N/A   Clear
6:05 AM 53.6 °F 42.8 °F 67% 30.18 in 10.0 mi WNW 3.5 mph - N/A   Clear
6:25 AM 53.6 °F 42.8 °F 67% 30.19 in 10.0 mi NW 3.5 mph - N/A   Clear
6:45 AM 53.6 °F 42.8 °F 67% 30.19 in 10.0 mi Calm Calm - N/A   Clear
7:05 AM 53.6 °F 42.8 °F 67% 30.19 in 10.0 mi Calm Calm - N/A   Clear
7:25 AM 53.6 °F 42.8 °F 67% 30.20 in 10.0 mi Calm Calm - N/A   Clear
7:45 AM 55.4 °F 42.8 °F 63% 30.21 in 10.0 mi North 5.8 mph - N/A   Clear
8:05 AM 55.4 °F 42.8 °F 63% 30.22 in 10.0 mi North 4.6 mph - N/A   Clear
8:25 AM 55.4 °F 42.8 °F 63% 30.23 in 10.0 mi North 4.6 mph - N/A   Clear
8:45 AM 55.4 °F 44.6 °F 67% 30.25 in 10.0 mi NNW 3.5 mph - N/A   Clear
9:05 AM 55.4 °F 44.6 °F 67% 30.24 in 10.0 mi NNW 3.5 mph - N/A   Clear
9:25 AM 55.4 °F 46.4 °F 72% 30.25 in 10.0 mi North 3.5 mph - N/A   Clear
9:45 AM 59.0 °F 46.4 °F 63% 30.25 in 10.0 mi NE 3.5 mph - N/A   Clear
10:05 AM 60.8 °F 44.6 °F 55% 30.25 in 10.0 mi NE 4.6 mph - N/A   Clear
10:25 AM 60.8 °F 44.6 °F 55% 30.25 in 10.0 mi NE 6.9 mph - N/A   Clear
10:45 AM 60.8 °F 42.8 °F 52% 30.26 in 10.0 mi NE 6.9 mph 17.3 mph N/A   Clear
11:06 AM 60.8 °F 42.8 °F 52% 30.25 in 10.0 mi NNE 10.4 mph 17.3 mph N/A   Clear
11:26 AM 60.8 °F 42.8 °F 52% 30.25 in 10.0 mi NE 8.1 mph - N/A   Clear
11:46 AM 60.8 °F 42.8 °F 52% 30.25 in 10.0 mi NE 5.8 mph - N/A   Clear
12:06 PM 60.8 °F 44.6 °F 55% 30.26 in 10.0 mi NE 4.6 mph - N/A   Clear
12:26 PM 60.8 °F 44.6 °F 55% 30.26 in 10.0 mi NE 3.5 mph - N/A   Clear
12:46 PM 60.8 °F 44.6 °F 55% 30.27 in 10.0 mi NNE 3.5 mph - N/A   Clear
1:06 PM 60.8 °F 44.6 °F 55% 30.26 in 10.0 mi NNE 5.8 mph - N/A   Clear
1:26 PM 60.8 °F 44.6 °F 55% 30.25 in 10.0 mi NNE 9.2 mph - N/A   Clear
1:46 PM 60.8 °F 44.6 °F 55% 30.24 in 10.0 mi NNE 4.6 mph - N/A   Clear
2:06 PM 60.8 °F 44.6 °F 55% 30.23 in 10.0 mi Calm Calm - N/A   Clear
2:26 PM 60.8 °F 44.6 °F 55% 30.23 in 10.0 mi NNE 4.6 mph - N/A   Clear
2:46 PM 60.8 °F 44.6 °F 55% 30.24 in 10.0 mi NE 4.6 mph - N/A   Clear
3:06 PM 60.8 °F 44.6 °F 55% 30.24 in 10.0 mi North 4.6 mph - N/A   Clear
3:26 PM 60.8 °F 46.4 °F 59% 30.24 in 10.0 mi NE 6.9 mph - N/A   Clear
3:46 PM 60.8 °F 46.4 °F 59% 30.23 in 10.0 mi Calm Calm - N/A   Clear
4:06 PM 60.8 °F 44.6 °F 55% 30.24 in 10.0 mi NE 6.9 mph - N/A   Clear
4:26 PM 60.8 °F 44.6 °F 55% 30.24 in 10.0 mi Calm Calm - N/A   Clear
4:46 PM 60.8 °F 44.6 °F 55% 30.24 in 10.0 mi NNE 3.5 mph - N/A   Clear
5:06 PM 60.8 °F 46.4 °F 59% 30.24 in 10.0 mi Calm Calm - N/A   Clear
5:26 PM 60.8 °F 46.4 °F 59% 30.25 in 10.0 mi NE 3.5 mph - N/A   Clear
5:46 PM 59.0 °F 46.4 °F 63% 30.24 in 10.0 mi Calm Calm - N/A   Clear
6:06 PM 59.0 °F 46.4 °F 63% 30.25 in 10.0 mi Calm Calm - N/A   Clear
6:26 PM 59.0 °F 46.4 °F 63% 30.26 in 10.0 mi Calm Calm - N/A   Clear
6:46 PM 57.2 °F 46.4 °F 67% 30.26 in 10.0 mi Calm Calm - N/A   Clear
7:06 PM 57.2 °F 46.4 °F 67% 30.26 in 10.0 mi Calm Calm - N/A   Clear
7:26 PM 57.2 °F 46.4 °F 67% 30.26 in 10.0 mi Calm Calm - N/A   Clear
7:46 PM 57.2 °F 46.4 °F 67% 30.27 in 10.0 mi Calm Calm - N/A   Clear
8:07 PM 57.2 °F 46.4 °F 67% 30.27 in 10.0 mi Calm Calm - N/A   Clear
8:27 PM 59.0 °F 46.4 °F 63% 30.27 in 10.0 mi Calm Calm - N/A   Clear
8:47 PM 59.0 °F 46.4 °F 63% 30.27 in 10.0 mi Calm Calm - N/A   Clear
9:07 PM 59.0 °F 46.4 °F 63% 30.27 in 10.0 mi Calm Calm - N/A   Clear
9:27 PM 59.0 °F 46.4 °F 63% 30.27 in 10.0 mi Calm Calm - N/A   Clear
9:47 PM 59.0 °F 46.4 °F 63% 30.27 in 10.0 mi Calm Calm - N/A   Clear
10:07 PM 59.0 °F 46.4 °F 63% 30.28 in 10.0 mi Calm Calm - N/A   Clear
10:27 PM 59.0 °F 46.4 °F 63% 30.27 in 10.0 mi NE 3.5 mph - N/A   Clear
10:47 PM 59.0 °F 46.4 °F 63% 30.27 in 10.0 mi ENE 3.5 mph - N/A   Clear
11:07 PM 59.0 °F 46.4 °F 63% 30.27 in 10.0 mi ENE 3.5 mph - N/A   Clear
11:27 PM 59.0 °F 46.4 °F 63% 30.27 in 10.0 mi NE 3.5 mph - N/A   Clear
11:47 PM 59.0 °F 46.4 °F 63% 30.27 in 10.0 mi NE 4.6 mph - N/A   Clear